Location: Helion Bumpstead
(52.0500°N, 0.4000°E)
Time: 08:39:01
(UTC+00:00)

Meteor 2-17 Rocket - Pass Details

Date: 15 November 2025
Orbit: 936 x 955 km, 82.5° (Epoch: 14 December)

Event Time Altitude Azimuth Distance (km) Brightness Sun altitude
Rises 06:03:22 0° 193° (SSW) 3,589 7.5 -11.5°
Reaches altitude 10° 06:05:50 10° 194° (SSW) 2,651 6.8 -11.1°
Maximum altitude 06:11:54 79° 282° (WNW) 969 4.4 -10.2°
Drops below altitude 10° 06:18:03 10° 9° (N) 2,682 6.7 -9.3°
Sets 06:20:34 0° 11° (N) 3,635 7.4 -9.0°
